Погода в Ромашкине

Россия / Республика Марий Эл     56°02′38″N   48°19′59″E
темп.,
°C
ветер,
м/с
пор.,
м/с
влажн.,
%
обл.,
%
осадки,
мм/ч
давл.,
гПа
погр.,
м
5 марта, пт
пт500:00−9з359515 0.0 99791
03:00−11зсз239641 0.0 100041
06:00−11сз2297100 0.1 100023
09:00−10сз239496 0.1 1002157
12:00−6з248872 0.0 1003490
15:00−5з468985 0.1 1005645
18:00−9зюз489483 0.0 1006146
21:00−11зюз379449 0.0 1009101
6 марта, сб
сб600:00−10юз359660 0.3 1008142
03:00−11з359779 1.4 101084
06:00−13зсз4995100 0.1 1012259
09:00−12зсз379493 0.2 1014335
12:00−10з468684 0.0 1015669
15:00−9зюз478992 0.1 1013630
18:00−13зюз239389 0.1 101334
21:00−14зюз349581 0.1 101472
7 марта, вс
вс700:00−16зюз229879 0.0 101220
03:00−18зюз129978 0.1 101220
06:00−18юз129978 0.0 101120
09:00−14ююз239587 0.1 1011174
12:00−10ю359294 0.0 1009346
15:00−8ю589188 0.1 1006529
18:00−9ю51290100 0.0 1004443
21:00−7ю71394100 0.3 1001786
8 марта, пн
пн800:00−7ююв81493100 0.9 996803
03:00−6ю71494100 1.8 993769
06:00−8зюз5148996 0.7 992541
09:00−8юз7138898 0.8 993792
12:00−6юз71288100 0.3 994963
15:00−5юз71088100 0.4 9941041
18:00−7ю3694100 0.1 996166
21:00−9ю1297100 0.5 99521
9 марта, вт
вт900:00−11зсз3395100 0.0 99544
03:00−12з499695 0.1 999203
06:00−12з5109399 0.2 1003322
09:00−11зсз589296 0.3 1005489
12:00−10з5790100 0.1 1008596
15:00−9з4689100 0.2 1010699
18:00−12з369598 0.1 1010128
21:00−13зсз229699 0.4 101241